Temp
18 18 18 19 19 19 19 18 18 18 18 18 18 18 17 17 17 17 17 17 17 17 16 16 16 16 17 17 17 18 18 17 17 17 17 17 17 17 17 17 17 18
18 18 18 19 19 18 18 18 18 18 18 18 17 17 17 17 17 17 17 17 17 16 16 16 16 16 17 17 17 17 17 17 17 17 17 17 17 17 17 17 17 17
18 18 19 19 18 18 18 17 18 18 18 17 17 17 17 17 17 17 17 17 17 16 16 16 16 16 17 17 17 17 17 17 17 17 17 17 18 18 17 17 17 17
18 18 18 19 18 18 18 17 18 18 17 17 17 17 17 16 16 17 17 17 17 16 16 16 16 17 17 17 17 17 17 18 17 17 18 18 18 18 18 18 18 17
18 18 18 18 18 18 17 17 18 18 17 17 17 17 17 17 17 17 17 17 17 16 16 16 16 17 17 17 17 18 18 18 18 18 18 18 18 18 18 18 17 17
17 18 18 18 18 18 17 17 17 17 17 17 17 17 17 17 17 17 17 17 17 17 17 17 17 17 17 17 17 17 18 18 18 18 18 18 18 18 18 18 18 18
17 18 18 18 18 18 18 17 17 17 17 17 17 17 17 17 17 17 17 17 17 17 17 17 17 17 17 17 17 17 18 18 18 18 19 19 18 18 18 18 18 18
17 17 18 18 18 17 18 18 17 17 17 17 17 17 17 17 17 17 17 17 17 17 17 17 17 17 17 17 17 17 17 17 18 18 19 18 19 19 18 18 18 18
17 17 17 18 18 18 18 18 17 17 17 17 17 17 17 17 17 17 17 17 17 17 17 17 17 17 17 17 17 17 17 17 18 18 18 18 19 19 19 18 18 18
17 17 17 17 17 18 18 18 17 17 17 17 17 17 17 17 17 17 17 17 17 17 17 17 17 17 17 17 17 18 18 18 18 18 18 18 19 19 19 19 19 18
17 17 17 17 18 18 17 17 17 17 17 17 17 17 17 17 17 17 17 17 17 18 18 17 17 17 17 17 17 17 18 18 18 18 18 18 18 18 18 19 18 18
16 15 16 16 17 17 17 17 17 17 17 17 17 17 17 17 17 17 17 17 17 18 18 18 18 18 18 18 17 17 17 17 18 18 18 18 18 18 18 18 18 18
15 15 16 16 16 16 16 17 17 17 17 17 17 17 17 17 17 17 17 17 17 18 18 18 18 18 18 18 18 18 17 17 17 17 18 18 18 18 18 18 18 18
16 16 16 15 16 16 16 16 16 17 17 17 17 17 17 17 17 17 16 17 17 17 18 17 17 17 18 18 18 18 18 17 17 17 17 17 17 17 17 17 18 18
15 15 15 15 15 16 15 15 15 16 16 16 17 17 17 17 17 17 16 16 16 16 17 17 17 17 17 18 18 18 18 17 17 17 17 17 17 17 17 17 17 17
14 14 14 14 14 14 14 14 15 15 15 16 16 16 16 16 16 16 16 16 16 16 16 16 17 17 17 17 17 17 17 17 17 17 17 17 17 17 17 17 17 17
13 13 13 13 13 13 14 14 15 14 14 15 15 15 15 16 16 16 16 15 15 15 16 16 16 16 16 16 16 17 17 17 17 17 17 17 17 17 17 17 17 16
13 12 12 12 13 13 13 14 14 14 13 14 15 15 15 15 15 15 15 15 15 15 16 16 16 16 16 16 16 16 16 17 17 17 17 17 17 17 17 17 17 16
13 12 12 12 13 13 13 13 13 13 13 13 13 14 15 15 15 15 15 15 15 15 16 16 16 16 16 16 16 16 16 16 16 17 17 17 17 17 17 17 17 16
13 13 13 12 13 12 12 12 12 13 13 13 13 14 15 15 15 14 14 15 15 15 15 15 15 16 16 15 16 16 16 16 16 16 16 16 17 17 17 17 16 16
13 13 13 13 13 12 12 12 12 12 13 13 13 14 14 14 14 14 14 14 15 15 14 14 15 15 15 15 15 15 16 16 15 15 15 16 16 16 16 16 16 16
11 12 11 12 13 12 12 12 12 12 13 13 13 13 14 14 14 14 14 14 14 14 14 14 14 14 14 14 15 15 15 15 14 15 15 15 15 15 15 15 15 15
10 10 10 11 12 12 12 11 11 12 12 13 13 13 13 13 13 14 14 13 13 14 14 13 13 13 13 14 14 14 14 14 14 15 15 15 15 15 15 15 15 15
10 10 10 10 11 11 11 11 11 11 11 12 12 12 13 13 13 13 13 13 13 13 13 13 12 12 12 13 13 13 14 14 14 15 15 15 15 15 14 15 15 14
10 10 10 10 10 10 11 11 11 11 11 11 12 12 12 12 12 12 12 12 11 11 12 12 11 11 11 12 12 13 13 13 14 14 15 15 15 15 15 15 14 14
9 9 10 10 10 10 10 10 11 11 12 12 12 12 12 11 11 11 10 10 10 10 11 11 10 10 11 11 12 12 12 12 13 14 15 15 15 15 15 15 15 14
Height
814 815 816 818 819 821 823 825 826 828 830 831 833 834 836 837 838 839 840 841 842 842 843 844 845 845 846 846 847 847 848 848 848 849 849 850 851 851 852 852 852 852
814 816 817 818 819 821 823 825 827 828 830 832 833 834 836 837 838 839 840 841 842 842 843 844 845 846 847 847 847 848 848 849 849 850 850 851 851 851 852 852 852 853
814 816 817 819 820 821 823 825 827 829 831 832 833 835 836 837 838 839 840 841 842 843 843 845 845 846 847 847 848 848 849 849 850 851 851 851 852 852 852 852 852 853
814 816 817 819 820 822 824 826 828 829 831 832 834 835 836 837 838 839 840 841 842 843 844 845 846 846 847 847 848 849 849 850 851 851 852 852 852 852 852 852 852 853
813 815 817 819 821 822 824 826 828 829 831 832 834 835 836 837 838 839 840 841 842 843 844 845 846 846 847 848 848 849 850 850 851 852 852 852 852 852 852 852 852 853
813 815 817 819 820 822 824 826 828 829 831 832 833 835 836 837 838 839 840 841 842 843 844 844 845 846 847 848 849 849 850 851 851 852 852 852 853 853 853 853 852 853
812 814 816 818 819 822 823 825 827 829 831 832 833 835 836 837 838 839 840 841 842 843 843 844 845 846 847 848 849 850 850 851 851 852 852 852 853 853 853 853 853 853
810 812 815 817 819 821 823 825 827 828 831 832 834 835 836 838 838 839 840 841 841 843 843 844 845 846 847 848 849 850 850 851 851 852 852 853 853 853 853 853 853 854
810 811 814 817 819 821 823 825 826 828 830 832 834 835 836 838 838 839 840 840 841 842 843 844 845 846 847 848 849 850 850 851 851 852 853 853 853 853 854 854 854 855
811 812 815 817 819 822 823 825 826 828 830 832 834 835 836 837 838 839 840 840 841 842 843 844 845 846 847 848 849 850 850 851 852 852 853 853 854 854 854 855 855 855
812 815 817 819 821 823 824 826 827 828 830 832 833 835 836 837 838 839 840 841 841 842 843 844 844 845 847 848 849 850 850 851 852 852 853 853 854 854 854 855 855 856
813 816 819 820 822 824 825 826 827 829 830 831 833 834 836 837 838 839 840 841 842 842 843 844 844 845 846 847 848 849 850 851 852 852 853 853 854 854 855 855 856 856
813 816 818 820 821 823 826 827 828 829 830 831 833 834 835 837 838 839 840 841 842 842 843 844 844 845 846 847 848 849 850 850 851 852 853 853 854 854 855 855 856 857
813 815 817 818 820 822 824 826 828 829 830 831 833 834 835 836 837 838 840 841 841 842 843 844 845 846 846 847 848 849 849 850 851 852 852 853 854 855 855 856 856 857
812 814 815 818 820 821 823 825 828 829 830 831 832 834 835 836 837 838 839 841 841 842 843 844 845 846 846 847 848 849 849 850 850 851 852 853 854 855 855 856 856 857
811 813 814 816 818 821 822 824 827 829 830 831 832 833 835 836 837 838 839 840 842 842 843 844 845 846 846 847 847 848 849 850 850 851 852 852 853 854 855 855 856 856
811 812 813 815 817 820 823 825 826 827 829 830 831 833 834 835 837 838 839 840 841 842 843 844 845 846 846 847 847 848 849 850 850 851 851 852 852 853 854 854 855 856
812 813 815 816 817 819 823 825 825 827 829 830 831 833 834 835 837 838 839 840 841 842 843 844 845 845 846 847 848 848 849 849 850 850 850 851 851 852 852 853 854 854
813 815 816 818 819 820 822 824 825 828 830 830 831 833 834 835 837 838 839 840 841 842 843 844 845 845 846 846 847 848 848 849 849 849 849 849 850 851 851 851 852 853
814 815 817 819 820 821 822 824 825 827 829 831 832 833 833 835 837 838 839 840 840 841 843 843 844 844 845 845 845 846 847 847 848 848 848 849 849 849 850 850 851 851
816 817 818 819 821 822 823 825 826 827 829 830 831 832 833 835 837 837 838 839 839 840 842 842 842 843 843 844 844 844 845 845 846 846 847 847 847 848 848 849 850 850
818 818 819 820 821 823 824 825 827 828 828 830 831 832 834 835 836 836 837 838 839 840 841 841 841 841 842 842 842 843 843 844 845 845 845 845 846 846 846 847 848 848
819 820 821 822 823 824 825 826 828 829 829 830 831 833 834 835 836 836 837 838 839 840 840 840 840 841 841 841 841 842 842 843 844 844 844 844 844 844 844 845 846 846
821 822 823 823 824 825 826 828 828 829 830 830 832 833 834 835 835 836 838 839 839 840 840 840 840 840 840 840 841 841 841 842 843 843 842 842 842 842 843 843 843 844
824 824 825 825 826 827 828 828 829 829 830 831 832 833 834 835 836 837 839 839 839 839 840 841 841 841 840 840 840 840 840 841 842 842 841 841 841 841 841 841 842 842
828 828 828 828 828 829 829 830 830 830 830 831 832 833 834 836 837 838 839 839 839 840 840 841 842 842 841 840 839 839 839 840 841 841 840 840 840 840 840 840 840 840
Wind_Speed
12 13 13 13 12 12 13 13 13 12 11 11 11 11 11 10 10 10 9 8 7 6 6 6 6 6 6 5 4 4 5 7 7 7 6 5 5 5 5 5 4 4
11 12 12 11 11 13 14 13 13 12 10 10 11 11 11 11 11 10 9 8 6 6 7 8 8 7 6 6 6 6 6 7 7 7 6 6 5 5 4 4 4 4
12 12 12 11 11 15 16 13 12 12 10 10 11 11 11 11 11 10 9 8 7 8 9 9 8 7 7 7 7 7 8 8 8 7 7 6 5 5 4 3 4 5
14 14 13 11 12 15 16 13 12 12 11 11 11 11 11 11 11 11 10 9 8 9 9 8 8 8 8 8 8 9 9 9 8 8 7 5 4 4 4 3 4 5
15 15 13 12 12 14 14 13 12 12 11 11 11 11 11 12 12 12 11 9 9 8 8 8 8 8 9 9 9 9 9 8 8 7 6 6 5 5 4 4 5 6
16 16 14 13 13 14 13 13 12 12 11 11 11 11 11 13 13 13 11 10 9 8 8 7 8 9 9 9 9 8 8 7 7 6 7 7 6 5 5 6 7 7
17 17 16 14 14 14 14 14 13 12 11 10 10 10 12 13 13 12 12 11 10 9 8 8 9 10 10 10 9 8 7 7 7 7 8 8 7 6 6 6 7 8
17 18 17 15 15 15 15 15 15 13 12 11 10 10 12 13 13 12 12 11 10 9 9 9 10 11 11 10 9 8 7 7 7 8 8 8 7 7 7 7 7 8
16 17 17 16 15 16 16 15 14 14 13 12 11 11 12 13 12 12 12 11 11 10 10 10 11 11 10 10 9 8 8 8 8 8 8 8 7 7 8 7 7 8
15 15 16 16 16 15 15 15 15 14 13 12 12 11 11 11 11 12 12 11 11 11 10 10 11 11 10 10 9 9 9 9 9 8 8 7 7 6 7 7 7 7
12 12 12 13 14 14 15 15 14 14 13 12 12 11 11 10 11 12 11 11 11 10 11 11 11 11 11 10 10 9 9 9 8 8 8 7 7 6 6 6 6 6
8 9 10 10 10 11 13 14 14 13 13 12 11 11 11 10 10 11 11 10 10 10 10 10 11 11 11 10 10 9 9 8 8 8 7 7 7 6 6 5 5 5
9 11 13 12 10 9 9 10 12 13 12 11 11 11 10 10 10 11 11 10 9 9 10 10 10 10 10 10 10 9 9 8 7 7 6 6 6 5 5 5 5 5
15 16 16 16 15 13 10 9 11 12 11 10 10 10 9 9 9 10 10 9 8 8 9 9 9 9 9 10 10 9 8 7 7 6 6 5 4 4 4 4 4 4
17 18 17 16 16 16 14 12 11 12 11 10 9 8 8 7 8 10 9 8 7 6 8 9 8 8 9 9 9 8 7 6 6 6 5 5 5 4 4 4 4 4
14 17 17 17 16 15 15 14 14 13 13 11 10 8 7 7 7 8 8 8 7 6 6 7 6 7 9 11 10 8 6 6 6 6 6 6 5 5 5 4 4 4
12 13 15 16 17 15 14 15 16 14 11 10 10 8 7 7 6 7 7 7 8 7 6 6 6 7 10 10 10 9 7 6 6 6 6 6 6 6 6 6 6 5
10 12 14 15 17 17 17 17 16 13 8 6 6 6 5 5 5 6 6 6 7 8 6 6 7 8 9 9 9 8 8 7 7 7 7 7 7 7 7 7 7 7
11 12 13 13 14 17 17 15 14 14 11 5 3 4 3 2 4 6 8 9 9 9 8 7 7 8 9 10 9 9 8 8 7 7 8 8 8 8 8 8 7 7
13 13 12 11 10 12 13 12 12 16 16 10 6 4 3 2 5 7 10 11 10 9 8 8 8 8 9 9 9 9 9 9 8 7 7 8 8 8 8 8 8 8
12 12 12 11 11 12 12 11 10 12 13 11 6 5 5 6 8 8 8 8 8 8 7 7 8 9 8 9 9 9 10 9 9 9 9 9 8 8 8 8 9 9
14 13 13 12 12 12 11 10 9 9 9 8 6 6 7 7 7 6 5 5 5 6 6 5 7 7 7 8 8 8 8 7 7 8 9 10 9 9 9 9 9 9
17 16 15 13 13 13 11 10 10 8 8 7 6 6 6 6 5 5 4 4 4 4 5 4 4 5 5 6 6 7 7 5 5 7 8 9 10 10 9 9 9 10
21 19 17 15 14 13 12 11 10 10 10 9 8 7 6 6 6 6 5 5 4 4 5 4 2 2 3 3 4 5 6 5 5 7 8 8 9 9 9 8 9 11
24 23 22 20 18 17 15 14 13 13 13 12 10 9 8 7 7 7 6 6 5 4 5 5 3 1 1 1 2 3 3 4 6 8 9 9 8 8 8 7 8 11
20 21 22 21 20 19 18 17 17 17 16 15 13 13 12 11 10 9 9 9 9 8 8 8 6 5 4 2 1 0 1 2 3 5 8 7 7 7 7 7 9 9
Wind_Direction
178 174 174 172 166 162 162 160 157 157 158 159 159 160 162 164 166 167 163 159 157 153 150 149 148 148 147 146 143 134 131 131 128 130 134 140 144 152 173 189 192 192
183 178 174 168 162 161 160 155 155 156 156 158 160 161 164 166 166 165 160 157 154 149 147 143 143 145 143 141 133 123 126 127 124 125 125 122 126 136 155 176 184 185
183 180 176 169 166 168 166 158 155 159 160 162 163 164 167 169 167 163 158 155 152 148 147 143 142 143 138 133 126 120 121 120 118 119 116 112 114 124 133 148 167 174
182 181 178 172 166 168 168 163 161 165 166 167 168 169 170 170 167 161 158 155 151 150 151 149 147 143 136 132 125 119 117 115 116 116 112 111 114 124 128 130 149 160
184 183 180 175 167 166 168 169 171 171 170 171 171 172 170 168 166 162 160 158 154 153 154 155 155 150 143 137 131 127 124 120 120 121 118 116 118 126 131 130 140 149
185 186 183 177 171 170 173 176 179 177 173 172 170 169 168 166 166 165 162 159 156 156 155 155 158 158 152 146 141 138 135 133 134 134 128 123 121 124 129 130 132 138
185 188 185 180 176 175 176 177 182 181 177 173 170 168 168 168 169 168 166 163 159 157 157 155 156 159 159 154 150 146 142 141 144 142 134 127 123 120 124 126 124 126
183 186 184 180 175 175 176 175 177 178 175 173 172 172 173 174 174 172 170 167 163 160 157 155 153 156 159 157 152 148 144 143 145 143 133 125 122 116 116 120 120 122
184 185 183 178 174 175 176 174 173 174 175 174 174 175 176 178 180 178 175 171 166 163 159 156 153 152 153 153 150 145 142 140 138 136 132 126 122 114 111 114 118 122
188 184 180 175 173 175 175 174 173 172 174 175 175 175 176 178 180 179 178 174 169 166 162 159 155 152 150 148 146 142 138 135 134 133 132 128 122 114 111 111 115 123
185 177 175 175 176 178 176 174 172 171 173 175 176 176 174 174 177 178 178 177 174 170 166 162 158 155 153 149 144 141 135 134 135 134 130 127 122 118 118 117 121 129
152 153 164 172 175 178 178 176 172 168 170 174 175 175 174 174 176 177 177 177 176 172 166 163 160 157 155 153 148 144 139 134 134 135 132 130 127 124 124 125 130 139
157 167 173 174 162 154 161 170 172 168 168 172 173 172 173 175 176 175 177 179 178 173 166 160 159 157 157 157 154 149 146 141 138 141 138 134 133 131 132 132 134 144
187 185 187 192 184 175 167 161 164 164 161 163 167 170 173 176 174 174 176 177 175 169 163 159 158 158 158 160 160 155 151 148 147 150 151 148 148 143 142 147 148 149
188 184 190 199 196 190 184 170 161 158 154 152 153 160 168 170 170 172 173 174 172 165 159 158 161 163 163 165 164 160 156 154 154 161 167 169 173 171 166 170 170 168
178 180 185 187 183 182 181 175 167 160 159 159 152 147 155 157 159 166 168 172 179 172 158 158 166 173 173 171 168 167 168 171 170 173 180 182 186 192 193 196 200 200
169 172 169 171 172 172 172 170 163 151 147 155 156 153 157 159 162 171 173 179 189 186 170 167 180 188 185 182 180 179 180 188 191 187 188 191 196 202 205 210 214 217
154 160 158 163 168 169 171 171 163 149 131 129 147 154 159 171 180 181 182 190 200 201 194 191 197 202 201 202 204 202 199 202 205 202 200 203 208 214 217 218 219 223
138 143 149 159 167 169 172 173 168 167 170 175 191 181 176 209 208 193 193 200 206 210 213 215 214 215 215 214 216 220 220 219 219 217 217 216 218 222 226 228 228 231
124 129 134 143 154 156 160 163 160 167 181 197 214 204 198 223 214 205 206 206 205 205 207 212 218 223 223 221 219 224 230 233 233 231 229 229 229 229 233 238 240 244
105 115 119 127 136 137 144 155 156 164 181 191 193 187 187 195 200 205 210 208 204 197 190 203 223 230 231 230 227 227 232 236 239 240 239 238 236 234 238 243 247 251
97 102 104 111 123 124 125 136 140 148 162 167 162 163 168 174 178 184 193 197 194 182 170 195 225 228 230 234 231 228 231 231 237 244 243 242 241 239 242 245 245 247
96 98 95 95 104 108 105 108 115 123 132 135 136 139 146 150 143 144 159 160 160 162 160 181 213 209 211 226 228 228 229 222 232 245 243 242 244 243 243 245 243 244
92 94 91 87 90 95 97 99 104 111 114 115 117 118 122 129 127 130 141 141 142 154 147 138 158 181 181 201 220 230 230 225 242 252 247 245 248 245 243 244 245 248
87 90 90 89 89 92 95 94 97 106 110 107 104 105 102 103 111 117 119 116 109 112 119 109 84 64 108 164 215 240 240 236 249 257 254 254 255 249 245 245 248 257
79 83 86 88 90 93 95 94 97 106 112 111 110 112 109 105 104 105 104 103 98 97 103 98 81 71 73 77 74 14 277 230 243 266 272 271 268 268 267 260 255 258